Showing default

SPOT 7, 40053

Orbit data source: Space-Track

SPOT 7, 40053 is a payload satellite owned by CNES (AZ) in SSO that was launched on Mon, 30 Jun 2014 UTC via a PSLV launch vehicle from the Sirharikota (SRI). Payloads include a variety of satellites, spacecraft, and rockets equipped with specific instruments for various scientific and technological missions. These include communications satellites like Starlink; space stations such as the ISS; scientific satellites like the Hubble; Earth observation satellites from companies like Planet Labs, Umbra, and HawkEye 360; GPS; miniature CubeSats for education and research; and military/defense satellites.

Loading next visibility...
SPOT 7 details
Identifier
40053, 2014-034A
Orbit
SSO
Last TLE update8 hours ago
Origin
Flag of AZCNES (AZ / AZER)
ManufacturerAirbus (UK)
MissionOperational Commercial Imaging
Bus & MotorASTROSAT-500L, AOCS
Mass712 kg wet, ~712 kg dry
Launch date (UTC)
2014-06-30 (10 years ago)
Launch vehicle
PSLV
Launch site
Sirharikota (SRI)
Object type
Payload
Rocket body
Debris
Shape & HBRHex Cyl + 3 Pan, 7 m
Radar Cross Section9.390 m², Large (>1 m²)

Expand to show TLE details & history

TLE from 8 hours ago
0 SPOT 7
1 40053U 14034A   24361.26824804  .00001538  00000-0  32961-3 0  9995
2 40053  98.1365  64.6701 0001503  94.2890 265.8482 14.60054152558619
Epoch: 2024-12-26T06:26Z
Definitive object data (Epoch: 2024-12-26T06:26:16.63Z)
Latitude-0.00004°
Longitude-127.14927°
Altitude696.063 km
Speed7.508 km/s
True Right ascension04h 18m 40s
True Declination0° 00' 00"
Sunlit
Object was in full shadow at TLE epoch
Visualization TLE readout
Latitude-81.68647°
Longitude-50.13151°
Altitude722.342 km
Speed7.493 km/s
Apparent Right ascension02h 24m 02s
Apparent Declination-67° 48' 10"
Sunlit
Object is in daylight
Visualization observer readout
Local Sidereal Time13:37:19
Azimuth189.187° SSW
Elevation-61.388°
Doppler factor1
Orbital elements
Apogee altitude691.14 km
Perigee altitude689.015 km
Semi-major axis7,068.214 km
Eccentricity0.0001503
Inclination98.1365°
RAAN64.6701°
Arg. of periapsis94.289°
True anomaly265.83102°
Mean anomaly265.8482°
Eccentric anomaly265.83961°
Mean motion3.6524 °/min
BSTAR0.00032961
Orbital period98.57 mins
Loading maneuver chart data...
Loading historical data...
Loading historical data...
Loading historical data...
Loading historical data...
Loading historical data...
Loading historical data...
Loading historical data...
Other satellites on launch #34 in the year 2014 (2014-06-30 UTC)

SPOT 7 Visibility forecast

Observer location: undefined°, undefined

Span
Click to sort rows by Start time (UTC) header in descending order
Start Az.
Max El. time (UTC)
Max El. Az.
Max El.
End time (UTC)
End Az.
8 mins2024-12-26 16:52:31.234Z26.454° NE2024-12-26 16:56:31.234Z84.251° E34.57°2024-12-26 17:00:31.234Z167.677° S
4 mins2024-12-26 18:32:31.234Z320.069° NNW2024-12-26 18:34:31.234Z288.046° WNW17.599°2024-12-26 18:36:31.234Z259.433° W
7 mins2024-12-27 03:57:31.234Z135.675° SSE2024-12-27 04:00:31.234Z76.812° E34.518°2024-12-27 04:04:31.234Z3.314° NNE
5 mins2024-12-27 05:36:31.234Z238.518° WSW2024-12-27 05:38:31.234Z269.133° W17.167°2024-12-27 05:41:31.234Z309.662° NW
|